| time (UTC) | temp F | wind direction | speed MPH | gust MPH | rain 1hr in | rain 24hr in | rain mn in | humidity % | barometer mb |
| 20260503050016 | 38 | 256 | 0.0 | 0.0 | 0.00 | 0.00 | 0.00 | 64 | 1017.6 |
| 20260503044540 | 38 | 241 | 1.0 | 2.0 | 0.00 | 0.00 | 0.00 | 63 | 1017.7 |
| 20260503043039 | 38 | 259 | 1.0 | 2.0 | 0.00 | 0.00 | 0.00 | 64 | 1017.7 |
| 20260503041508 | 38 | 244 | 1.0 | 3.0 | 0.00 | 0.00 | 0.00 | 64 | 1017.6 |
| 20260503040012 | 38 | 264 | 0.0 | 0.0 | 0.00 | 0.00 | 0.00 | 64 | 1017.7 |
| 20260503034522 | 38 | 263 | 0.0 | 2.0 | 0.00 | 0.00 | 0.00 | 63 | 1017.7 |
| 20260503033022 | 37 | 300 | 0.0 | 0.0 | 0.00 | 0.00 | 0.00 | 63 | 1017.7 |
| 20260503031529 | 36 | 300 | 0.0 | 0.0 | 0.00 | 0.00 | 0.00 | 66 | 1017.8 |
| 20260503030029 | 37 | 300 | 0.0 | 0.0 | 0.00 | 0.00 | 0.00 | 63 | 1017.9 |
| 20260503024515 | 38 | 300 | 0.0 | 0.0 | 0.00 | 0.00 | 0.00 | 62 | 1017.9 |
| 20260503023020 | 37 | 300 | 0.0 | 1.0 | 0.00 | 0.00 | 0.00 | 62 | 1017.9 |
| 20260503021522 | 38 | 300 | 0.0 | 1.0 | 0.00 | 0.00 | 0.00 | 60 | 1017.9 |
| 20260503020028 | 39 | 300 | 0.0 | 1.0 | 0.00 | 0.00 | 0.00 | 61 | 1017.8 |
| 20260503014528 | 40 | 307 | 0.0 | 0.0 | 0.00 | 0.00 | 0.00 | 58 | 1017.8 |
| 20260503013014 | 42 | 307 | 0.0 | 0.0 | 0.00 | 0.00 | 0.00 | 56 | 1017.7 |
| 20260503011523 | 43 | 308 | 0.0 | 1.0 | 0.00 | 0.00 | 0.00 | 52 | 1017.7 |
| 20260503010031 | 44 | 305 | 1.0 | 3.0 | 0.00 | 0.00 | 0.00 | 53 | 1017.6 |
| 20260503004528 | 45 | 302 | 2.0 | 7.0 | 0.00 | 0.00 | 0.00 | 50 | 1017.5 |
| 20260503003010 | 46 | 297 | 5.0 | 9.0 | 0.00 | 0.00 | 0.00 | 45 | 1017.5 |
| 20260503001527 | 47 | 313 | 5.0 | 14.0 | 0.00 | 0.00 | 0.00 | 43 | 1017.3 |
| 20260503000003 | 48 | 274 | 6.0 | 11.0 | 0.00 | 0.00 | 0.00 | 46 | 1017.3 |
| 20260502234506 | 49 | 281 | 5.0 | 11.0 | 0.00 | 0.00 | 0.00 | 45 | 1017.2 |
| 20260502233008 | 49 | 319 | 6.0 | 13.0 | 0.00 | 0.00 | 0.00 | 41 | 1017.3 |
| 20260502231532 | 49 | 317 | 4.0 | 16.0 | 0.00 | 0.00 | 0.00 | 47 | 1017.2 |
| 20260502230020 | 50 | 277 | 4.0 | 8.0 | 0.00 | 0.00 | 0.00 | 45 | 1017.2 |
| 20260502224502 | 49 | 314 | 3.0 | 10.0 | 0.00 | 0.00 | 0.00 | 44 | 1017.3 |
| 20260502223022 | 49 | 300 | 4.0 | 12.0 | 0.00 | 0.00 | 0.00 | 43 | 1017.3 |
| 20260502221513 | 50 | 303 | 5.0 | 8.0 | 0.00 | 0.00 | 0.00 | 45 | 1017.3 |
| 20260502220016 | 48 | 337 | 5.0 | 10.0 | 0.00 | 0.00 | 0.00 | 46 | 1017.5 |
| 20260502214520 | 48 | 332 | 6.0 | 11.0 | 0.00 | 0.00 | 0.00 | 46 | 1017.4 |
| 20260502213004 | 50 | 327 | 2.0 | 10.0 | 0.00 | 0.00 | 0.00 | 50 | 1017.5 |
| 20260502211510 | 48 | 18 | 6.0 | 12.0 | 0.00 | 0.00 | 0.00 | 48 | 1017.5 |
| 20260502210014 | 48 | 287 | 2.0 | 10.0 | 0.00 | 0.00 | 0.00 | 50 | 1017.6 |
| 20260502204518 | 47 | 297 | 6.0 | 10.0 | 0.00 | 0.00 | 0.00 | 52 | 1017.8 |
| 20260502203022 | 47 | 287 | 6.0 | 10.0 | 0.00 | 0.00 | 0.00 | 51 | 1017.8 |
| 20260502201525 | 48 | 329 | 4.0 | 8.0 | 0.00 | 0.00 | 0.00 | 50 | 1018.0 |
| 20260502200008 | 47 | 341 | 5.0 | 10.0 | 0.00 | 0.00 | 0.00 | 49 | 1018.2 |
| 20260502194515 | 47 | 291 | 5.0 | 9.0 | 0.00 | 0.00 | 0.00 | 48 | 1018.4 |
| 20260502193021 | 48 | 299 | 5.0 | 7.0 | 0.00 | 0.00 | 0.00 | 46 | 1018.4 |
| 20260502191529 | 48 | 331 | 7.0 | 12.0 | 0.00 | 0.00 | 0.00 | 50 | 1018.5 |
| 20260502190038 | 46 | 300 | 6.0 | 11.0 | 0.00 | 0.00 | 0.00 | 50 | 1018.6 |
| 20260502184514 | 47 | 326 | 3.0 | 8.0 | 0.00 | 0.00 | 0.00 | 52 | 1018.6 |
| 20260502183018 | 46 | 300 | 6.0 | 13.0 | 0.00 | 0.00 | 0.00 | 50 | 1018.8 |
| 20260502181525 | 47 | 8 | 6.0 | 11.0 | 0.00 | 0.00 | 0.00 | 50 | 1018.8 |
| 20260502163028 | 44 | 345 | 7.0 | 11.0 | 0.00 | 0.00 | 0.00 | 54 | 1019.5 |
| 20260502161514 | 46 | 304 | 9.0 | 14.0 | 0.00 | 0.00 | 0.00 | 56 | 1019.5 |
| 20260502151554 | 44 | 293 | 6.0 | 12.0 | 0.00 | 0.00 | 0.00 | 60 | 1019.6 |
| 20260502123029 | 37 | 355 | 2.0 | 12.0 | 0.00 | 0.04 | 0.00 | 72 | 1019.1 |
| 20260502121526 | 36 | 311 | 3.0 | 9.0 | 0.00 | 0.07 | 0.00 | 75 | 1019.3 |
| 20260502114514 | 33 | 321 | 2.0 | 6.0 | 0.00 | 0.08 | 0.00 | 79 | 1019.1 |
| 20260502113027 | 32 | 311 | 3.0 | 5.0 | 0.00 | 0.08 | 0.00 | 80 | 1018.9 |
| 20260502111523 | 31 | 323 | 3.0 | 4.0 | 0.00 | 0.08 | 0.00 | 81 | 1018.7 |
| 20260502110034 | 30 | 313 | 2.0 | 4.0 | 0.00 | 0.08 | 0.00 | 81 | 1018.7 |
| 20260502104509 | 30 | 304 | 3.0 | 5.0 | 0.00 | 0.09 | 0.00 | 81 | 1018.6 |
| 20260502103012 | 30 | 313 | 3.0 | 4.0 | 0.00 | 0.09 | 0.00 | 81 | 1018.5 |
| 20260502101518 | 30 | 307 | 2.0 | 4.0 | 0.00 | 0.09 | 0.00 | 80 | 1018.4 |
| 20260502091514 | 31 | 309 | 2.0 | 3.0 | 0.00 | 0.10 | 0.00 | 78 | 1018.3 |
| 20260502071528 | 33 | 314 | 2.0 | 4.0 | 0.00 | 0.22 | 0.00 | 72 | 1018.2 |
| 20260502070039 | 33 | 314 | 2.0 | 4.0 | 0.00 | 0.23 | 0.00 | 72 | 1018.3 |
| 20260502064520 | 33 | 318 | 2.0 | 6.0 | 0.00 | 0.26 | 0.00 | 71 | 1018.3 |
| 20260502063035 | 33 | 314 | 2.0 | 4.0 | 0.00 | 0.27 | 0.00 | 70 | 1018.4 |
| 20260502061526 | 34 | 316 | 2.0 | 5.0 | 0.00 | 0.28 | 0.00 | 70 | 1018.4 |
| 20260502060026 | 34 | 314 | 2.0 | 5.0 | 0.00 | 0.28 | 0.00 | 69 | 1018.4 |
| 20260502054534 | 34 | 316 | 2.0 | 6.0 | 0.00 | 0.30 | 0.00 | 70 | 1018.4 |
| 20260502053004 | 34 | 328 | 3.0 | 5.0 | 0.00 | 0.31 | 0.00 | 73 | 1018.5 |
| 20260502051504 | 34 | 314 | 1.0 | 3.0 | 0.00 | 0.31 | 0.00 | 73 | 1018.5 |